Weather WX

World > North America > United States > Mississippi

Slayden, Mississippi Regional Weather

Lat: 34.95N, Lon: 89.45W
Wx Zone: MSZ002
Feedback

Slayden, MS Regional Weather

Expires:201906182100;;695516
ASUS44 KJAN 182010
RWRMS 

MISSISSIPPI HOURLY WEATHER ROUNDUP
NATIONAL WEATHER SERVICE JACKSON MS
300 PM CDT TUE JUN 18 2019

NOTE: "FAIR: INDICATES FEW OR NO CLOUDS BELOW 12,000 FEET WITH NO
SIGNIFICANT WEATHER AND/OR OBSTRUCTIONS TO VISIBILITY.


MSZ001>002-007>008-010>013-018>021-025>028-034>036-182100-
NORTHWEST MISSISSIPPI
  
CITY           SKY/WX    TMP DP  RH WIND       PRES   REMARKS
BATESVILLE     CLOUDY    81  73  78 CALM      29.87F                  
CLARKSDALE     MOSUNNY   91  70  49 W7        29.87S HX  97           
CLEVELAND      FAIR      87  71  59 NW6       29.86F HX  92           
GREENWOOD      FAIR      87  72  60 VRB6      29.87F HX  93           
GREENVILLE     PTSUNNY   86  72  62 S8        29.86F HX  92           
OLIVE BRANCH   PTSUNNY   84  75  74 S6        29.87F HX  92           
OXFORD         PTSUNNY   79  70  73 NW5       29.90F                  
TUNICA           N/A     82  66  57 CALM      29.87F                  
WINONA         MOCLDY    83  73  72 W3        29.87F                  
$$


SKY/WX - Weather  TMP - Temperature  DP - Dew Point  RH - Relative Humidity
WIND - Wind Direction/Speed PRES - Barometric Pressure VSB - Visibility
WCI - Wind Chill Index E13G22 Wind - East Wind 13 mph/Gusts of 22 mph